Breckenridge, USA 16 day weather forecast

Slopes altitude range 2925 m - 3915m

Number of lifts: 23 Pistes: 155km

In some cases the lift and piste totals shown are for the ski domain (e.g. Three Valleys) rather than individual resort (e.g. Courchevel)

Overview

The 16 day weather forecast is fully updated 4 times every day.

    • Sun 23 SEP 2018
    • Sun 23
    • 2C 3C
    • Mon 24 SEP 2018
    • Mon 24
    • 2C 4C
    • Tue 25 SEP 2018
    • Tue 25
    • 0C 2C
    • Wed 26 SEP 2018
    • Wed 26
    • 0C 2C
    • Thu 27 SEP 2018
    • Thu 27
    • -1C 0C
    • Fri 28 SEP 2018
    • Fri 28
    • 0C 2C
    • Sat 29 SEP 2018
    • Sat 29
    • 2C 3C
    • Sun 30 SEP 2018
    • Sun 30
    • 5C 7C
    • Mon 01 OCT 2018
    • Mon 01
    • 4C 9C
    • Tue 02 OCT 2018
    • Tue 02
    • 5C 7C
    • Wed 03 OCT 2018
    • Wed 03
    • 2C 13C
    • Thu 04 OCT 2018
    • Thu 04
    • 2C 14C
    • Fri 05 OCT 2018
    • Fri 05
    • 1C 11C
    • Sat 06 OCT 2018
    • Sat 06
    • -1C 13C
    • Sun 07 OCT 2018
    • Sun 07
    • 1C 13C
    • Mon 08 OCT 2018
    • Mon 08
    • 1C 14C

Date:

Time Type 0°C level Temp Chill Snow Cloud Speed Gust Dir Press
3:00 4522m 4°C 4_2 0cm 0% 2mph 3mph 1019mB
6:00 4424m 3°C 3_3 0cm 0% 3mph 3mph 1020mB
9:00 4359m 3°C 3_2 0cm 0% 2mph 3mph 1020mB
12:00 4310m 3°C 3_1 0cm 0% 1mph 2mph 1020mB
15:00 4295m 10°C 10_2 0cm 0% 2mph 7mph 1019mB
18:00 4454m 14°C 14_7 0cm 0% 7mph 10mph 1015mB
21:00 4524m 13°C 13_8 0cm 93% 8mph 12mph 1012mB
0:00 4555m 12°C 12_8 0cm 89% 8mph 13mph 1011mB
3:00 4498m 5°C 5_2 0cm 7% 2mph 3mph 1014mB
6:00 4391m 4°C 4_3 0cm 17% 3mph 4mph 1014mB
9:00 4245m 3°C 3_4 0cm 11% 4mph 5mph 1015mB
12:00 4089m 4°C 4_3 0cm 21% 3mph 4mph 1015mB
15:00 4001m 7°C 7_6 0cm 72% 6mph 18mph 1015mB
18:00 4124m 10°C 10_16 0cm 57% 16mph 27mph 1013mB
21:00 4298m 10°C 10_17 0cm 49% 17mph 27mph 1010mB
0:00 4236m 9°C 9_13 0cm 40% 13mph 22mph 1011mB
3:00 4122m 3°C 3_4 0cm 4% 4mph 5mph 1015mB
6:00 4066m 2°C 2_4 0cm 2% 4mph 5mph 1017mB
9:00 3828m 0°C 0_3 0cm 0% 3mph 4mph 1017mB
12:00 3319m 2°C 2_2 0cm 0% 2mph 3mph 1019mB
15:00 3851m 7°C 7_3 0cm 0% 3mph 13mph 1021mB
18:00 4103m 11°C 11_14 0cm 0% 14mph 20mph 1019mB
21:00 4207m 11°C 11_14 0cm 0% 14mph 17mph 1016mB
0:00 4212m 9°C 9_7 0cm 4% 7mph 10mph 1018mB
3:00 3736m 1°C 1_4 0cm 14% 4mph 5mph 1023mB
6:00 3623m 0°C 0_6 1cm 27% 6mph 10mph 1024mB
9:00 3637m 1°C 1_7 0cm 65% 7mph 12mph 1024mB
12:00 3264m 2°C 2_4 0cm 52% 4mph 6mph 1023mB
15:00 3683m 5°C 5_5 0cm 10% 5mph 15mph 1022mB
18:00 3932m 9°C 9_11 0cm 5% 11mph 16mph 1019mB
21:00 4101m 9°C 9_13 0cm 0% 13mph 19mph 1015mB
0:00 4093m 8°C 8_10 0cm 0% 10mph 18mph 1015mB
3:00 3620m 0°C 0_4 0cm 13% 4mph 5mph 1019mB
6:00 3221m -1°C -1_4 0cm 6% 4mph 5mph 1019mB
9:00 3200m -1°C -1_4 0cm 85% 4mph 5mph 1019mB
12:00 3157m 0°C 0_4 0cm 86% 4mph 5mph 1020mB
15:00 3869m 6°C 6_4 0cm 80% 4mph 14mph 1019mB
18:00 4139m 11°C 11_11 0cm 83% 11mph 23mph 1015mB
21:00 4340m 11°C 11_16 0cm 46% 16mph 27mph 1012mB
0:00 4300m 9°C 9_9 0cm 62% 9mph 20mph 1013mB
3:00 4205m 2°C 2_3 0cm 60% 3mph 4mph 1019mB
6:00 4247m 2°C 2_4 0cm 33% 4mph 5mph 1021mB
9:00 4269m 1°C 1_4 0cm 55% 4mph 4mph 1021mB
12:00 4217m 2°C 2_3 0cm 65% 3mph 4mph 1021mB
15:00 4292m 8°C 8_5 0cm 70% 5mph 15mph 1019mB
18:00 4461m 14°C 14_12 0cm 46% 12mph 23mph 1015mB
21:00 4593m 14°C 14_17 0cm 0% 17mph 26mph 1012mB
0:00 4544m 11°C 11_10 0cm 0% 10mph 21mph 1013mB
3:00 4502m 3°C 3_3 0cm 0% 3mph 4mph 1019mB
6:00 4478m 3°C 3_3 0cm 0% 3mph 4mph 1021mB
9:00 4489m 2°C 2_2 0cm 22% 2mph 3mph 1022mB
12:00 4510m 3°C 3_2 0cm 16% 2mph 3mph 1023mB
15:00 4540m 10°C 10_3 0cm 41% 3mph 4mph 1021mB
18:00 4633m 16°C 16_8 0cm 28% 8mph 14mph 1017mB
21:00 4796m 16°C 16_12 0cm 33% 12mph 17mph 1014mB
0:00 4753m 12°C 12_7 0cm 20% 7mph 17mph 1014mB
3:00 4775m 5°C 5_2 0cm 0% 2mph 3mph 1018mB
6:00 4786m 4°C 4_3 0cm 9% 3mph 4mph 1019mB
9:00 4649m 6°C 6_4 0cm 60% 4mph 5mph 1018mB
12:00 4565m 7°C 7_4 0cm 79% 4mph 5mph 1018mB
15:00 4456m 13°C 13_5 0cm 51% 5mph 15mph 1016mB
18:00 4360m 19°C 19_14 0cm 27% 14mph 25mph 1012mB
21:00 4515m 19°C 19_15 0cm 4% 15mph 25mph 1008mB
0:00 4445m 17°C 17_10 0cm 2% 10mph 23mph 1007mB
3:00 4375m 10°C 10_7 0cm 0% 7mph 32mph 1009mB
6:00 4189m 9°C 9_10 0cm 2% 10mph 34mph 1009mB
9:00 3872m 8°C 8_11 0cm 46% 11mph 34mph 1011mB
12:00 3588m 9°C 9_10 0cm 23% 10mph 28mph 1014mB
15:00 3417m 7°C 7_7 0cm 1% 7mph 17mph 1015mB
18:00 3818m 14°C 14_8 0cm 0% 8mph 17mph 1013mB
21:00 4147m 14°C 14_14 0cm 7% 14mph 25mph 1010mB
0:00 4150m 14°C 14_9 0cm 3% 9mph 23mph 1010mB
3:00 4175m 6°C 6_5 0cm 0% 5mph 6mph 1014mB
6:00 4254m 6°C 6_6 0cm 1% 6mph 7mph 1014mB
9:00 4241m 6°C 6_7 0cm 6% 7mph 32mph 1012mB
12:00 4143m 7°C 7_7 0cm 3% 7mph 24mph 1012mB
15:00 4071m 11°C 11_15 0cm 34% 15mph 35mph 1011mB
18:00 4080m 16°C 16_20 0cm 65% 20mph 37mph 1010mB
Morning 0.322917mm 0 4015m 5°C 5_5 0cm 100% 5mph 9mph 1019mB
Afternoon 0.0572917mm 0 4020m 13°C 13_6 0cm 77% 6mph 11mph 1020mB
Morning 0.0260417mm 0 4224m 4°C 4_4 0cm 60% 4mph 5mph 1021mB
Afternoon 0.3125mm 0.125 4020m 14°C 14_4 0cm 27% 4mph 8mph 1020mB
Morning 0.572917mm 1.5 3764m 4°C 4_5 0cm 81% 5mph 11mph 1021mB
Afternoon 0.28125mm 0.0625 3715m 11°C 11_10 0cm 24% 10mph 15mph 1017mB
Morning 0.0208333mm 0 3444m 0°C 0_4 0cm 28% 4mph 6mph 1018mB
Afternoon 0.00520833mm 0 3880m 13°C 13_6 0cm 0% 6mph 8mph 1015mB
Morning 0.0520833mm 0 3909m 2°C 2_2 0cm 23% 2mph 3mph 1017mB
Afternoon 0.078125mm 0 3939m 13°C 13_9 0cm 67% 9mph 14mph 1014mB
Morning 0.015625mm 0 3970m 2°C 2_4 0cm 60% 4mph 5mph 1017mB
Afternoon 0.0208333mm 0 4044m 14°C 14_8 0cm 0% 8mph 11mph 1012mB

16 day outlook at a glance

Forecast issued: 23/09/2018 05:16:06

Chat

Your comments and questions. In a resort? Let us know what it's like!


Characters left 250

For terms and conditions see Readers Comments on the Cookie and privacy policy page.